Location: Sihaung
(22.8641°N, 94.0549°E)
Time: 17:22:25
(UTC+00:00)

SJ-7 - Pass Details

Date: 03 March 2021
Orbit: 556 x 601 km, 97.7° (Epoch: 12 April)

Event Time Altitude Azimuth Distance (km) Brightness Sun altitude
Rises 23:23:30 0° 8° (N) 2,742 7.9 -9.9°
Reaches altitude 10° 23:25:37 10° 6° (N) 1,849 7.0 -9.4°
Maximum altitude 23:29:36 69° 283° (WNW) 604 4.3 -8.5°
Drops below altitude 10° 23:33:37 10° 199° (SSW) 1,865 6.9 -7.5°
Sets 23:35:46 0° 197° (SSW) 2,767 7.8 -7.0°
